Theta_e
316 317 315 312 310 310 311 310 307 306 306 306 306 306 306 306 306 306 306 306 306 306 306 306 306 306 306 306 306 306 306 305 305 305 305 305 305 305 304 305 304 304
317 318 316 312 311 310 311 311 308 307 307 308 308 308 307 306 306 306 306 306 306 306 306 306 306 306 306 306 306 306 305 305 305 305 305 305 305 304 304 304 304 303
316 318 317 314 311 311 311 312 311 309 309 309 309 309 308 308 308 307 307 307 306 306 306 306 306 306 306 306 306 306 305 305 305 305 305 305 305 304 304 304 304 304
317 318 318 315 313 312 312 313 313 313 313 311 310 310 309 309 309 308 308 308 307 307 307 306 307 306 306 306 306 306 306 306 305 305 305 305 306 305 305 305 305 305
317 318 318 316 314 313 313 314 314 314 315 314 313 311 311 310 311 310 310 309 308 308 308 307 307 307 307 307 306 306 306 306 307 306 306 306 307 307 307 307 307 307
318 318 318 317 315 314 314 314 314 315 315 316 314 313 312 312 313 313 312 312 310 310 310 310 309 309 308 308 307 307 307 307 307 307 307 307 307 307 307 308 308 308
319 320 318 317 316 314 314 314 315 315 315 316 315 314 314 314 314 315 315 315 314 313 314 314 313 313 312 310 310 309 308 308 307 308 308 307 308 308 307 308 308 307
319 319 318 317 316 316 315 315 315 315 315 316 316 314 315 315 316 316 316 316 316 315 315 316 316 316 316 315 315 314 313 312 310 309 309 308 308 308 308 308 308 308
319 319 318 317 316 316 316 315 316 316 315 316 316 315 316 316 316 316 317 317 316 316 316 316 317 317 317 317 317 317 317 316 316 314 313 312 310 309 308 308 308 308
320 319 318 317 316 317 317 316 316 316 316 315 316 316 316 316 317 317 317 317 317 317 316 316 317 317 317 317 317 317 317 317 318 317 317 316 314 313 311 311 310 308
321 320 319 318 317 318 318 317 317 317 316 316 316 316 316 317 318 318 318 318 317 317 316 317 317 317 316 317 316 316 317 317 318 318 318 317 317 316 314 314 313 311
321 320 320 319 318 318 318 318 319 318 317 317 316 317 317 317 319 319 319 318 317 317 317 317 317 317 316 316 315 315 316 317 318 318 318 318 317 316 316 315 315 313
320 320 320 320 319 319 318 318 318 318 318 319 318 318 318 318 319 319 319 318 317 317 317 317 317 317 316 315 315 315 315 316 317 317 317 318 317 317 316 315 315 314
321 321 320 320 319 319 318 318 318 318 318 319 319 319 319 319 318 318 319 318 318 317 317 317 317 317 315 314 313 314 314 314 313 314 317 318 317 317 317 316 315 314
320 321 321 320 319 318 317 317 317 317 318 318 318 318 318 318 317 317 317 317 318 318 318 318 318 316 314 312 313 314 314 314 313 315 317 318 317 317 317 316 315 315
319 320 320 319 318 318 317 317 317 318 318 318 318 318 317 316 316 316 316 316 317 317 316 317 316 315 314 313 315 315 315 316 316 316 317 318 318 317 317 316 315 315
319 319 319 317 318 318 317 317 317 317 317 317 317 316 315 314 314 316 316 315 315 315 314 314 314 314 314 314 315 316 316 317 317 317 317 317 318 318 317 316 315 314
316 316 316 316 317 317 315 314 314 313 314 314 314 313 312 312 312 312 312 312 313 314 315 315 315 315 314 314 314 316 317 318 318 318 317 317 318 318 317 315 314 314
311 311 311 312 314 314 312 311 310 310 310 311 312 312 312 312 312 311 311 312 313 315 315 315 316 315 315 315 315 316 317 318 319 319 319 318 318 318 317 315 314 314
309 309 309 310 311 311 310 309 309 310 310 310 311 311 311 312 313 313 313 314 314 314 314 314 314 314 314 313 312 312 312 313 315 317 319 319 318 318 317 316 315 314
308 309 309 309 309 309 310 310 310 310 310 310 310 311 312 313 314 314 314 314 313 313 313 313 312 310 309 307 306 306 306 308 312 315 317 318 318 317 316 315 314 313
308 308 308 309 309 309 309 308 306 306 306 306 307 309 311 312 312 311 311 311 311 311 311 311 310 308 306 304 303 302 302 305 309 313 316 317 317 316 315 314 313 312
307 308 309 308 309 308 306 303 302 302 303 303 303 304 304 305 306 306 306 306 307 308 309 310 310 308 306 304 303 301 302 303 305 308 311 314 315 315 314 313 312 311
306 307 307 308 308 306 304 303 302 302 302 302 302 302 303 304 304 305 306 306 306 307 308 309 310 309 307 306 305 304 303 304 305 308 310 312 313 313 312 311 309 309
307 307 307 307 307 306 306 305 304 303 302 302 302 302 302 304 305 306 307 308 308 309 309 309 309 309 309 309 308 307 306 306 307 310 312 312 312 311 310 309 309 309
307 308 308 307 307 307 306 305 305 304 304 303 303 302 301 302 304 307 308 309 310 310 310 310 309 309 310 310 310 309 308 307 307 309 311 312 311 310 310 309 309 308
Wind_Speed
16 14 12 12 13 13 14 16 17 16 17 17 17 16 15 14 13 12 11 10 9 9 9 8 8 8 8 8 8 7 6 6 5 5 5 4 3 3 3 2 1 1
18 17 15 14 15 15 15 17 19 19 19 18 17 17 16 14 14 12 12 11 10 9 9 9 9 9 8 7 6 5 5 5 5 5 5 4 4 5 4 3 3 2
20 20 19 17 16 17 17 18 19 19 19 18 17 17 15 14 14 13 12 11 11 10 9 9 9 9 8 7 6 5 5 6 6 6 6 6 6 6 5 5 5 4
23 22 22 18 16 17 18 18 19 18 18 17 16 16 15 14 13 12 12 11 10 9 9 8 8 8 7 6 5 5 5 5 5 5 5 6 6 6 6 6 5 4
25 24 24 21 17 17 18 19 19 19 18 17 16 15 15 14 12 11 10 9 9 9 8 8 7 6 6 6 5 4 4 5 5 5 4 4 4 4 4 4 4 3
29 26 26 24 20 18 19 20 20 19 19 17 16 15 14 13 12 10 9 8 8 7 7 6 6 5 4 4 4 3 3 3 2 3 3 2 2 1 1 1 1 1
31 29 28 26 23 21 20 20 21 21 20 19 17 14 13 13 12 10 10 9 8 7 6 6 6 5 4 3 2 2 1 0 1 1 1 1 2 2 2 2 2 2
31 29 29 28 26 24 22 22 23 22 21 21 19 15 14 13 12 11 10 9 8 7 7 7 7 6 5 3 2 2 2 3 4 4 4 4 5 4 4 4 5 5
33 30 31 32 28 25 25 25 26 26 25 23 21 17 15 14 12 12 11 10 9 8 8 7 6 4 3 1 1 2 3 5 6 7 7 7 8 7 7 7 8 8
33 31 32 32 28 26 27 28 28 29 28 25 22 20 18 17 15 14 13 12 11 10 10 8 6 4 3 3 3 4 6 7 8 9 9 9 10 10 10 10 11 11
32 31 31 30 28 28 30 31 33 34 32 28 24 22 21 20 19 18 17 15 13 12 10 8 6 5 6 7 8 9 9 10 11 12 12 12 12 12 12 12 12 13
30 28 28 29 30 32 32 30 30 31 31 28 26 24 22 22 21 20 18 16 13 12 11 10 9 8 10 13 14 14 14 13 13 15 16 17 16 15 15 15 14 14
29 29 29 29 29 29 29 26 22 22 21 21 24 26 27 26 23 21 18 15 13 13 13 13 12 12 14 17 17 17 16 16 15 17 19 21 20 19 18 18 17 16
22 25 27 27 25 23 22 20 20 20 17 15 19 24 25 24 20 17 16 15 14 14 15 15 14 15 18 20 19 17 17 17 18 19 21 24 25 23 21 21 20 19
18 19 20 19 19 20 17 15 17 20 20 20 21 22 20 18 16 16 15 15 16 17 18 18 19 20 20 19 17 17 18 19 21 23 23 24 26 27 26 24 23 23
21 22 21 17 16 19 20 20 21 23 23 23 23 22 19 17 18 19 17 17 18 19 20 21 22 21 20 18 17 18 19 20 23 25 26 26 26 28 30 28 27 26
18 21 23 23 20 18 18 19 20 20 20 20 20 19 18 17 18 17 16 16 17 17 17 18 18 17 17 17 17 17 18 19 22 24 26 27 27 28 31 31 29 28
13 15 18 20 19 17 16 16 15 15 15 16 16 15 15 15 15 15 15 15 16 15 15 15 15 16 17 18 18 18 18 20 21 22 24 26 27 28 30 31 30 30
13 14 16 17 17 16 15 13 11 11 11 12 13 12 12 13 13 13 14 14 14 14 14 15 16 17 18 18 19 20 20 20 21 21 23 24 25 27 30 31 30 31
15 15 15 16 15 14 13 10 9 9 9 9 10 11 11 11 11 12 13 13 13 13 14 16 17 18 18 19 21 22 23 22 21 21 22 22 22 25 29 31 31 31
14 15 15 14 14 13 13 11 10 10 11 11 12 12 12 11 11 12 12 13 13 13 14 15 16 17 17 18 20 21 21 21 20 19 19 19 20 24 28 29 28 28
13 14 14 15 15 14 13 12 12 13 13 13 13 13 14 13 13 13 13 14 14 14 15 15 15 15 15 16 17 18 18 17 16 15 14 15 17 22 25 26 25 26
12 13 13 13 14 12 10 9 10 11 11 11 10 10 10 10 10 10 10 11 12 13 14 14 15 15 15 14 14 15 15 15 14 13 12 12 15 19 23 25 26 27
12 13 12 12 12 10 8 6 6 6 8 9 8 8 8 9 9 8 9 10 11 12 13 14 15 16 15 14 13 13 13 13 13 12 12 12 14 17 20 23 24 24
13 13 12 10 9 8 7 5 5 5 6 7 7 7 8 9 10 10 11 11 13 14 15 16 17 17 17 15 15 14 13 13 12 11 11 13 15 17 20 22 22 22
11 11 9 8 8 7 6 6 7 7 7 7 6 7 8 10 11 12 12 13 14 16 17 18 18 19 18 17 16 16 15 14 12 11 12 14 15 17 19 21 22 22
Wind_Direction
190 192 193 202 198 190 175 160 149 137 129 124 120 120 122 124 126 127 127 124 121 118 114 110 107 109 109 106 102 98 97 96 99 105 107 112 118 113 108 112 131 151
195 200 202 204 198 188 174 161 153 142 135 130 125 122 122 123 124 124 123 121 120 117 111 108 109 111 110 104 99 96 91 87 88 94 95 95 97 98 101 103 100 101
197 204 208 211 204 189 175 167 161 151 146 143 136 129 124 124 125 124 125 122 121 119 112 106 106 108 109 104 97 90 85 82 81 82 81 83 85 85 92 95 87 84
198 207 212 214 212 200 185 177 173 167 162 157 147 138 132 129 126 124 126 126 124 121 115 108 103 103 107 107 101 91 85 82 82 84 82 81 79 73 78 87 84 81
200 205 212 214 214 210 200 191 186 183 178 172 162 152 143 137 133 125 124 128 127 124 121 120 117 112 110 110 109 102 93 88 89 96 95 85 82 76 72 78 80 80
204 204 209 210 209 210 209 201 196 194 190 186 179 168 156 148 144 138 133 133 133 131 128 129 130 128 124 118 117 116 109 102 93 98 101 95 98 112 93 68 70 76
208 205 207 208 207 210 212 205 202 202 199 197 193 184 173 163 158 155 151 146 144 144 140 134 129 121 111 105 97 91 101 178 286 280 217 231 238 237 251 275 277 268
207 204 205 206 206 210 214 210 207 206 204 203 202 197 188 178 172 170 167 166 166 165 156 143 132 120 107 89 62 31 350 320 305 294 280 270 268 264 258 266 274 274
207 205 206 205 205 211 215 213 210 207 206 206 206 205 200 194 190 188 186 186 188 190 181 166 156 149 139 106 354 317 313 311 306 301 296 288 287 285 278 276 279 279
207 207 205 203 205 212 216 217 215 211 208 207 209 210 206 203 202 199 197 197 200 203 200 196 191 192 217 265 282 288 289 292 294 293 293 291 289 288 286 286 287 284
206 206 205 205 206 209 212 214 214 213 210 208 210 213 210 208 206 204 205 209 214 218 220 220 219 227 253 274 282 286 284 283 285 283 284 286 285 284 283 285 288 287
205 207 209 210 211 212 213 211 209 210 210 208 210 212 211 210 209 209 212 217 224 230 235 239 243 257 279 286 283 281 278 273 273 275 278 279 279 279 278 278 282 283
208 209 208 207 208 210 208 202 197 202 207 209 209 209 208 206 206 209 213 222 235 244 251 257 257 266 283 285 276 272 270 265 264 270 272 273 275 275 273 273 274 275
202 200 201 201 199 196 194 193 194 199 207 213 212 211 209 205 204 209 214 224 240 252 258 259 257 268 281 281 272 266 265 263 266 270 266 265 269 271 271 269 268 270
210 200 197 196 195 197 203 214 217 215 219 223 219 213 209 210 221 231 231 232 239 248 252 252 255 267 277 275 267 264 265 264 267 268 264 261 263 266 267 267 265 266
218 216 217 221 219 218 223 227 225 221 219 220 219 218 223 235 244 247 245 239 240 248 253 255 258 265 270 268 267 268 270 270 269 269 267 265 263 263 263 262 262 263
215 217 224 229 227 223 218 213 211 213 217 222 227 231 237 240 238 239 240 239 243 252 256 258 259 261 264 266 267 270 272 273 273 271 269 267 266 264 261 258 257 259
200 197 204 210 210 203 198 197 204 217 226 230 232 230 228 230 233 238 242 243 248 252 252 253 255 255 258 261 264 268 271 272 273 272 271 268 268 265 259 254 254 256
160 164 173 185 193 193 196 203 212 221 224 220 217 216 220 229 234 236 240 245 249 251 252 254 255 258 262 265 268 270 270 270 271 273 273 271 270 267 260 254 254 255
162 167 172 179 187 193 201 206 205 207 211 212 215 222 229 233 234 235 241 247 250 252 256 258 261 266 270 271 272 272 271 271 271 272 275 275 272 267 261 257 255 254
173 177 180 182 185 188 192 196 203 212 219 224 226 231 235 236 239 244 248 252 255 258 260 264 268 272 275 277 278 277 276 276 276 275 277 277 271 263 259 256 251 247
183 185 189 190 191 193 197 202 211 216 219 224 227 230 234 236 239 245 250 253 255 258 263 268 274 278 284 287 285 284 284 282 281 280 281 278 268 258 252 249 244 240
200 199 201 200 201 205 207 203 199 197 201 208 213 219 229 237 242 249 255 258 258 261 266 272 279 289 296 298 296 295 295 294 294 295 293 287 273 258 248 243 239 236
215 215 217 217 217 215 205 195 189 193 197 198 202 211 222 234 246 258 266 271 273 274 276 280 286 294 299 303 307 310 309 307 304 303 300 290 275 258 244 236 232 232
219 224 227 225 223 215 206 216 235 233 221 214 217 227 232 238 246 254 262 270 275 278 282 285 290 295 297 299 304 310 315 313 303 292 286 277 266 254 243 238 238 243
207 215 220 220 219 220 231 251 254 243 234 236 245 253 257 255 251 250 254 261 268 272 277 282 286 289 290 291 294 299 306 308 299 284 276 272 267 260 255 251 252 254